GW3055 Weather Reports


Display with metric or nautical units.
time (UTC)temp
F
wind
direction
speed
MPH
gust
MPH
rain 1hr
in
rain 24hr
in
rain mn
in
humidity
%
barometer
mb
20260507051552 60 234 2.0 6.0 0.00 0.00 0.00 72 1017.9
20260507051045 60 235 2.0 6.0 0.00 0.00 0.00 72 1017.9
20260507050542 60 244 1.0 4.0 0.00 0.00 0.00 72 1017.9
20260507050057 60 233 1.0 4.0 0.00 0.00 0.00 72 1017.8
20260507045545 61 231 0.0 4.0 0.00 0.00 0.00 72 1017.8
20260507045042 61 235 1.0 3.0 0.00 0.00 0.00 72 1017.9
20260507044553 61 232 0.0 3.0 0.00 0.00 0.00 72 1017.8
20260507044045 61 235 1.0 3.0 0.00 0.00 0.00 72 1017.8
20260507043545 61 241 0.0 3.0 0.00 0.00 0.00 71 1017.8
20260507043049 61 240 1.0 4.0 0.00 0.00 0.00 71 1017.8
20260507042546 61 235 1.0 5.0 0.00 0.00 0.00 71 1017.8
20260507042045 62 237 1.0 5.0 0.00 0.00 0.00 70 1017.8
20260507041554 62 238 2.0 4.0 0.00 0.00 0.00 70 1017.8
20260507041047 62 240 1.0 4.0 0.00 0.00 0.00 70 1017.8
20260507040544 62 237 2.0 4.0 0.00 0.00 0.00 69 1017.7
20260507040056 62 240 2.0 5.0 0.00 0.00 0.00 69 1017.7
20260507035543 62 240 2.0 6.0 0.00 0.00 0.00 69 1017.6
20260507035043 62 237 2.0 6.0 0.00 0.00 0.00 68 1017.6
20260507034554 63 232 1.0 4.0 0.00 0.00 0.00 68 1017.5
20260507034045 63 237 1.0 4.0 0.00 0.00 0.00 67 1017.4
20260507033547 63 239 1.0 6.0 0.00 0.00 0.00 67 1017.3
20260507033054 63 240 0.0 6.0 0.00 0.00 0.00 67 1017.2
20260507032544 63 214 2.0 6.0 0.00 0.00 0.00 67 1017.2
20260507032043 64 221 1.0 6.0 0.00 0.00 0.00 67 1017.2
20260507031552 64 233 2.0 6.0 0.00 0.00 0.00 66 1017.1
20260507031046 64 227 2.0 7.0 0.00 0.00 0.00 66 1017.1
20260507030543 64 233 2.0 7.0 0.00 0.00 0.00 66 1017.1
20260507030051 65 261 3.0 6.0 0.00 0.00 0.00 66 1017.1
20260507025542 65 237 1.0 6.0 0.00 0.00 0.00 65 1017.0
20260507025045 65 237 2.0 8.0 0.00 0.00 0.00 65 1016.8
20260507024605 66 239 3.0 8.0 0.00 0.00 0.00 64 1016.9
20260507024048 66 257 2.0 8.0 0.00 0.00 0.00 63 1016.7
20260507023550 66 223 2.0 8.0 0.00 0.00 0.00 63 1016.7
20260507023051 67 244 2.0 8.0 0.00 0.00 0.00 62 1016.5
20260507022546 67 226 2.0 7.0 0.00 0.00 0.00 62 1016.4
20260507022044 68 0 2.0 7.0 0.00 0.00 0.00 61 1016.4
20260507021549 68 231 3.0 7.0 0.00 0.00 0.00 60 1016.4
20260507021043 69 249 1.0 6.0 0.00 0.00 0.00 58 1016.4
20260507020545 70 244 1.0 6.0 0.00 0.00 0.00 57 1016.3
20260507020109 71 0 1.0 5.0 0.00 0.00 0.00 55 1016.2
20260507015544 72 0 0.0 9.0 0.00 0.00 0.00 54 1016.2
20260507015043 73 184 2.0 9.0 0.00 0.00 0.00 54 1016.2
20260507014554 73 233 2.0 6.0 0.00 0.00 0.00 53 1016.1
20260507014042 74 234 1.0 9.0 0.00 0.00 0.00 52 1016.1
20260507013546 74 260 2.0 9.0 0.00 0.00 0.00 53 1016.1
20260507013055 74 229 1.0 8.0 0.00 0.00 0.00 53 1016.0
20260507012545 74 207 3.0 9.0 0.00 0.00 0.00 52 1016.0
20260507012046 74 209 3.0 9.0 0.00 0.00 0.00 52 1015.9
20260507011548 74 210 3.0 9.0 0.00 0.00 0.00 51 1015.9
20260507011045 75 242 4.0 9.0 0.00 0.00 0.00 50 1015.9
20260507010544 76 226 0.0 8.0 0.00 0.00 0.00 50 1015.8
20260507010051 75 247 2.0 8.0 0.00 0.00 0.00 50 1015.8
20260507005544 75 225 2.0 9.0 0.00 0.00 0.00 51 1015.8
20260507005045 75 240 3.0 9.0 0.00 0.00 0.00 50 1015.8
20260507004605 76 221 2.0 8.0 0.00 0.00 0.00 49 1015.8
20260507004044 76 237 1.0 8.0 0.00 0.00 0.00 50 1015.9
20260507003546 76 254 3.0 12.0 0.00 0.00 0.00 50 1015.8
20260507003052 75 238 4.0 12.0 0.00 0.00 0.00 51 1015.8
20260507002547 76 234 5.0 12.0 0.00 0.00 0.00 48 1015.8
20260507002044 75 240 2.0 10.0 0.00 0.00 0.00 49 1015.8
20260507001552 75 231 4.0 10.0 0.00 0.00 0.00 49 1015.8
20260507001043 75 251 2.0 11.0 0.00 0.00 0.00 50 1015.7
20260507000545 75 242 5.0 12.0 0.00 0.00 0.00 48 1015.9
20260507000052 76 220 3.0 12.0 0.00 0.00 0.00 48 1015.8
20260506235547 76 230 4.0 12.0 0.00 0.00 0.00 49 1015.8
20260506235043 77 254 4.0 12.0 0.00 0.00 0.00 47 1015.8
20260506234553 77 226 2.0 9.0 0.00 0.00 0.00 48 1015.7
20260506234044 76 235 4.0 9.0 0.00 0.00 0.00 48 1015.7
20260506233547 77 236 4.0 12.0 0.00 0.00 0.00 47 1015.8
20260506233110 77 233 4.0 12.0 0.00 0.00 0.00 48 1015.8
20260506232543 77 251 2.0 9.0 0.00 0.00 0.00 48 1015.8
20260506232047 77 255 2.0 12.0 0.00 0.00 0.00 48 1015.8
20260506231600 77 244 2.0 12.0 0.00 0.00 0.00 49 1015.9
20260506231045 77 235 3.0 11.0 0.00 0.00 0.00 48 1015.8
20260506230547 77 231 3.0 11.0 0.00 0.00 0.00 49 1015.8
20260506230059 77 260 4.0 10.0 0.00 0.00 0.00 47 1015.9
20260506225544 77 258 3.0 9.0 0.00 0.00 0.00 48 1015.8
20260506225047 77 231 4.0 11.0 0.00 0.00 0.00 47 1015.9
20260506224554 77 250 4.0 11.0 0.00 0.00 0.00 49 1015.9
20260506224047 77 227 3.0 11.0 0.00 0.00 0.00 47 1016.0
20260506223543 76 214 5.0 12.0 0.00 0.00 0.00 48 1016.0
20260506223055 76 235 7.0 12.0 0.00 0.00 0.00 46 1016.0
20260506222543 76 247 3.0 9.0 0.00 0.00 0.00 46 1016.1
20260506222044 77 212 4.0 9.0 0.00 0.00 0.00 47 1016.2
20260506221553 77 224 2.0 8.0 0.00 0.00 0.00 44 1016.1
20260506221045 76 202 3.0 10.0 0.00 0.00 0.00 50 1016.2
20260506220550 76 239 4.0 10.0 0.00 0.00 0.00 47 1016.2
20260506220057 76 240 1.0 11.0 0.00 0.00 0.00 49 1016.4
20260506215546 76 229 3.0 11.0 0.00 0.00 0.00 47 1016.5
20260506215044 75 218 5.0 11.0 0.00 0.00 0.00 47 1016.5
20260506214555 75 219 2.0 8.0 0.00 0.00 0.00 49 1016.5
20260506214043 76 223 4.0 11.0 0.00 0.00 0.00 47 1016.6
20260506213545 76 258 0.0 11.0 0.00 0.00 0.00 51 1016.7
20260506213111 76 243 2.0 10.0 0.00 0.00 0.00 48 1016.7
20260506212544 76 166 1.0 10.0 0.00 0.00 0.00 48 1016.8
20260506212047 76 231 1.0 7.0 0.00 0.00 0.00 49 1016.9
20260506211553 76 226 3.0 8.0 0.00 0.00 0.00 48 1016.9
20260506211045 75 172 0.0 10.0 0.00 0.00 0.00 50 1016.9
20260506210545 74 234 2.0 10.0 0.00 0.00 0.00 51 1017.2
20260506210054 74 233 4.0 10.0 0.00 0.00 0.00 48 1017.2
20260506205547 74 0 1.0 10.0 0.00 0.00 0.00 49 1017.2
20260506205047 74 251 2.0 11.0 0.00 0.00 0.00 49 1017.4
20260506204553 73 235 0.0 11.0 0.00 0.00 0.00 53 1017.4
20260506204046 74 246 4.0 7.0 0.00 0.00 0.00 50 1017.6
20260506203546 74 302 3.0 7.0 0.00 0.00 0.00 49 1017.5
20260506203052 73 237 1.0 8.0 0.00 0.00 0.00 52 1017.4
20260506202547 73 256 3.0 8.0 0.00 0.00 0.00 50 1017.6
20260506202046 73 273 3.0 7.0 0.00 0.00 0.00 48 1017.5
20260506201549 73 236 2.0 7.0 0.00 0.00 0.00 51 1017.6
20260506201044 74 102 2.0 7.0 0.00 0.00 0.00 51 1017.6
20260506200545 74 249 1.0 8.0 0.00 0.00 0.00 51 1017.8
20260506200052 72 273 3.0 8.0 0.00 0.00 0.00 52 1017.8
20260506195545 73 243 2.0 8.0 0.00 0.00 0.00 49 1017.9
20260506195048 73 0 1.0 10.0 0.00 0.00 0.00 52 1018.0
20260506194601 72 0 2.0 10.0 0.00 0.00 0.00 52 1018.1
20260506194045 72 230 2.0 5.0 0.00 0.00 0.00 51 1018.1
20260506193546 72 246 2.0 9.0 0.00 0.00 0.00 55 1018.1
20260506193053 72 235 3.0 9.0 0.00 0.00 0.00 52 1018.2
20260506192546 71 162 3.0 10.0 0.00 0.00 0.00 55 1018.0
20260506192048 71 243 2.0 10.0 0.00 0.00 0.00 57 1018.2
20260506191555 71 247 1.0 8.0 0.00 0.00 0.00 57 1018.3
20260506191043 70 251 1.0 7.0 0.00 0.00 0.00 53 1018.3
20260506190545 70 264 3.0 7.0 0.00 0.00 0.00 54 1018.4
20260506190053 69 249 2.0 10.0 0.00 0.00 0.00 55 1018.4
20260506185545 69 208 3.0 10.0 0.00 0.00 0.00 55 1018.4
20260506185045 70 230 1.0 7.0 0.00 0.00 0.00 56 1018.5
20260506184601 69 227 2.0 7.0 0.00 0.00 0.00 55 1018.5
20260506184045 69 219 2.0 6.0 0.00 0.00 0.00 56 1018.6
20260506183543 70 246 1.0 5.0 0.00 0.00 0.00 57 1018.6
20260506183103 69 244 1.0 6.0 0.00 0.00 0.00 61 1018.7
20260506182545 68 239 3.0 6.0 0.00 0.00 0.00 55 1018.7
20260506182045 70 244 2.0 6.0 0.00 0.00 0.00 57 1018.7
20260506181624 69 261 1.0 7.0 0.00 0.00 0.00 60 1018.7
20260506181047 69 114 2.0 7.0 0.00 0.00 0.00 58 1018.7
20260506180547 69 0 0.0 6.0 0.00 0.00 0.00 61 1018.8
20260506180054 68 166 2.0 5.0 0.00 0.00 0.00 59 1018.7
20260506175547 67 221 1.0 6.0 0.00 0.00 0.00 60 1018.8
20260506175046 67 230 1.0 6.0 0.00 0.00 0.00 57 1018.8
20260506174551 67 237 3.0 6.0 0.00 0.00 0.00 58 1018.7
20260506174043 68 267 0.0 4.0 0.00 0.00 0.00 58 1018.7
20260506173544 67 216 1.0 6.0 0.00 0.00 0.00 58 1018.7
20260506173108 66 0 0.0 6.0 0.00 0.00 0.00 65 1018.8
20260506172547 66 0 2.0 6.0 0.00 0.00 0.00 59 1018.8
20260506172047 66 230 1.0 4.0 0.00 0.00 0.00 61 1018.8
20260506171552 66 158 0.0 3.0 0.00 0.00 0.00 61 1018.8
20260506171045 65 0 1.0 3.0 0.00 0.00 0.00 60 1018.8
20260506170546 65 0 0.0 4.0 0.00 0.00 0.00 63 1018.8
20260506170059 65 236 1.0 4.0 0.00 0.00 0.00 63 1018.8
20260506165545 66 0 0.0 3.0 0.00 0.00 0.00 63 1018.7
20260506165046 65 0 0.0 2.0 0.00 0.00 0.00 62 1018.7
20260506164613 65 0 0.0 2.0 0.00 0.00 0.00 63 1018.7
20260506164043 64 242 0.0 4.0 0.00 0.00 0.00 62 1018.8
20260506163542 63 239 0.0 4.0 0.00 0.00 0.00 68 1018.8
20260506163100 63 237 0.0 3.0 0.00 0.00 0.00 67 1018.8
20260506162542 63 251 0.0 3.0 0.00 0.00 0.00 65 1018.8
20260506162049 64 233 1.0 3.0 0.00 0.00 0.00 63 1018.7
20260506161557 64 0 0.0 3.0 0.00 0.00 0.00 70 1018.8
20260506161048 63 152 0.0 2.0 0.00 0.00 0.00 67 1018.7
20260506160545 62 228 0.0 2.0 0.00 0.00 0.00 71 1018.8
20260506160108 61 170 0.0 3.0 0.00 0.00 0.00 72 1018.7
20260506155549 60 173 1.0 3.0 0.00 0.00 0.00 75 1018.7
20260506155045 59 76 0.0 3.0 0.00 0.00 0.00 74 1018.7
20260506154603 59 0 1.0 3.0 0.00 0.00 0.00 75 1018.7
20260506154045 59 0 0.0 3.0 0.00 0.00 0.00 77 1018.7
20260506153547 60 101 0.0 2.0 0.00 0.00 0.00 77 1018.7
20260506153115 59 180 0.0 2.0 0.00 0.00 0.00 78 1018.8
20260506152546 58 0 0.0 2.0 0.00 0.00 0.00 78 1018.8
20260506152044 57 164 0.0 2.0 0.00 0.00 0.00 81 1018.7
20260506151559 56 0 0.0 1.0 0.00 0.00 0.00 82 1018.8
20260506151046 56 192 0.0 1.0 0.00 0.00 0.00 82 1018.8
20260506150544 56 0 0.0 1.0 0.00 0.00 0.00 83 1018.7
20260506150058 56 0 0.0 2.0 0.00 0.00 0.00 83 1018.7
20260506145541 54 0 0.0 2.0 0.00 0.00 0.00 85 1018.7
20260506145041 54 0 0.0 1.0 0.00 0.00 0.00 86 1018.8
20260506144555 54 179 0.0 1.0 0.00 0.00 0.00 86 1018.8
20260506144041 54 0 0.0 1.0 0.00 0.00 0.00 88 1018.7
20260506143544 53 0 0.0 1.0 0.00 0.00 0.00 89 1018.6
20260506143050 52 0 0.0 1.0 0.00 0.00 0.00 90 1018.5
20260506142541 53 0 0.0 0.0 0.00 0.00 0.00 91 1018.5
20260506142044 52 0 0.0 0.0 0.00 0.00 0.00 92 1018.4
20260506141553 51 0 0.0 0.0 0.00 0.00 0.00 92 1018.5
20260506141042 50 0 0.0 0.0 0.00 0.00 0.00 92 1018.5
20260506140546 50 0 0.0 0.0 0.00 0.00 0.00 92 1018.5
20260506140054 50 0 0.0 0.0 0.00 0.00 0.00 92 1018.4
20260506135540 49 0 0.0 0.0 0.00 0.00 0.00 92 1018.5
20260506135042 49 0 0.0 0.0 0.00 0.00 0.00 92 1018.4
20260506134554 49 0 0.0 0.0 0.00 0.00 0.00 92 1018.4
20260506134046 49 0 0.0 0.0 0.00 0.00 0.00 92 1018.4
20260506133544 48 0 0.0 0.0 0.00 0.00 0.00 92 1018.4
20260506133054 48 0 0.0 0.0 0.00 0.00 0.00 92 1018.3
20260506132545 48 0 0.0 0.0 0.00 0.00 0.00 91 1018.2
20260506132047 47 0 0.0 0.0 0.00 0.00 0.00 91 1018.2
20260506131554 47 0 0.0 0.0 0.00 0.00 0.00 91 1018.1
20260506131044 48 0 0.0 0.0 0.00 0.00 0.00 90 1018.1
20260506130543 48 0 0.0 0.0 0.00 0.00 0.00 90 1018.1
20260506130050 48 0 0.0 0.0 0.00 0.00 0.00 91 1018.0
20260506125543 48 0 0.0 0.0 0.00 0.01 0.00 90 1017.9
20260506125040 48 0 0.0 0.0 0.00 0.01 0.00 90 1018.0
20260506124550 48 0 0.0 0.0 0.00 0.01 0.00 90 1017.9
20260506124044 48 0 0.0 0.0 0.00 0.01 0.00 90 1017.8
20260506123542 48 0 0.0 0.0 0.00 0.01 0.00 91 1017.8
20260506123054 48 0 0.0 0.0 0.00 0.01 0.00 91 1017.8
20260506122542 48 0 0.0 0.0 0.00 0.01 0.00 90 1017.7
20260506122044 48 0 0.0 0.0 0.00 0.01 0.00 90 1017.9
20260506121547 48 0 0.0 0.0 0.00 0.01 0.00 90 1017.8
20260506121044 48 0 0.0 0.0 0.00 0.01 0.00 91 1017.7
20260506120544 48 0 0.0 0.0 0.00 0.01 0.00 91 1017.6
20260506120053 48 0 0.0 0.0 0.00 0.01 0.00 91 1017.6
20260506115544 48 0 0.0 0.0 0.00 0.01 0.00 90 1017.6
20260506115045 48 0 0.0 0.0 0.00 0.01 0.00 91 1017.6
20260506114558 48 0 0.0 0.0 0.00 0.01 0.00 90 1017.6
20260506114043 48 0 0.0 0.0 0.00 0.01 0.00 91 1017.6
20260506113546 48 0 0.0 0.0 0.00 0.01 0.00 91 1017.6
20260506113056 48 0 0.0 1.0 0.00 0.01 0.00 90 1017.7
20260506112545 49 0 0.0 1.0 0.00 0.01 0.00 91 1017.6
20260506112045 49 215 0.0 1.0 0.00 0.01 0.00 91 1017.6
20260506111551 49 0 0.0 1.0 0.00 0.01 0.00 91 1017.6
20260506111046 49 0 0.0 1.0 0.00 0.01 0.00 91 1017.6
20260506110545 49 0 0.0 0.0 0.00 0.01 0.00 91 1017.5
20260506110054 49 0 0.0 0.0 0.00 0.01 0.00 90 1017.5
20260506105549 49 0 0.0 0.0 0.00 0.02 0.00 90 1017.4
20260506105048 50 0 0.0 0.0 0.00 0.02 0.00 90 1017.4
20260506104558 50 0 0.0 0.0 0.00 0.02 0.00 90 1017.4
20260506104045 50 0 0.0 0.0 0.00 0.02 0.00 90 1017.4
20260506103546 50 0 0.0 0.0 0.00 0.02 0.00 90 1017.5
20260506103056 50 0 0.0 0.0 0.00 0.02 0.00 90 1017.6
20260506102546 50 0 0.0 0.0 0.00 0.02 0.00 91 1017.5
20260506102047 50 0 0.0 2.0 0.00 0.02 0.00 90 1017.5
20260506101552 50 0 0.0 2.0 0.00 0.02 0.00 90 1017.4
20260506101043 51 0 0.0 2.0 0.00 0.02 0.00 91 1017.4
20260506100549 50 0 0.0 1.0 0.00 0.02 0.00 90 1017.5
20260506100052 51 0 0.0 1.0 0.00 0.02 0.00 90 1017.6
20260506095548 51 0 0.0 1.0 0.00 0.02 0.00 91 1017.6
20260506095045 51 0 0.0 2.0 0.00 0.02 0.00 91 1017.6
20260506094552 50 0 0.0 2.0 0.00 0.02 0.00 91 1017.5
20260506094044 50 0 0.0 0.0 0.00 0.02 0.00 90 1017.5
20260506093547 50 0 0.0 0.0 0.00 0.02 0.00 90 1017.5
20260506093053 50 0 0.0 0.0 0.00 0.02 0.00 90 1017.4
20260506092547 50 0 0.0 0.0 0.00 0.02 0.00 90 1017.5
20260506092046 50 0 0.0 0.0 0.00 0.02 0.00 89 1017.6
20260506091600 50 0 0.0 0.0 0.00 0.02 0.00 90 1017.7
20260506091045 50 0 0.0 0.0 0.00 0.02 0.00 90 1017.7
20260506090548 50 0 0.0 0.0 0.00 0.02 0.00 89 1017.7
20260506090059 50 0 0.0 0.0 0.00 0.02 0.00 89 1017.7
20260506085543 49 0 0.0 0.0 0.00 0.03 0.00 88 1017.8
20260506085042 50 0 0.0 0.0 0.00 0.03 0.00 89 1017.8
20260506084558 50 0 0.0 0.0 0.00 0.03 0.00 89 1017.8
20260506084042 50 0 0.0 0.0 0.00 0.03 0.00 88 1017.9
20260506083542 50 0 0.0 0.0 0.00 0.03 0.00 88 1017.9
20260506083056 50 0 0.0 1.0 0.00 0.03 0.00 88 1018.0
20260506082543 50 0 0.0 1.0 0.00 0.03 0.00 88 1017.9
20260506082043 50 0 0.0 0.0 0.00 0.03 0.00 88 1018.0
20260506081602 50 0 0.0 0.0 0.00 0.03 0.00 88 1018.0
20260506081044 50 0 0.0 0.0 0.00 0.03 0.00 87 1018.0
20260506080543 50 0 0.0 0.0 0.00 0.03 0.00 86 1018.0
20260506080104 50 0 0.0 0.0 0.00 0.03 0.00 86 1018.0
20260506073056 52 0 0.0 1.0 0.00 0.03 0.00 84 1018.1
20260506072546 52 0 0.0 1.0 0.00 0.03 0.00 83 1018.0
20260506072042 52 0 0.0 1.0 0.00 0.03 0.00 82 1017.9
20260506071602 53 0 0.0 2.0 0.00 0.03 0.00 82 1017.9
20260506071041 53 0 0.0 2.0 0.00 0.03 0.00 83 1018.0
20260506070541 52 0 0.0 3.0 0.00 0.03 0.00 83 1017.9
20260506062044 53 0 0.0 0.0 0.00 0.03 0.03 82 1017.8
20260506061553 53 0 0.0 0.0 0.00 0.03 0.03 82 1017.8
20260506061042 53 0 0.0 0.0 0.00 0.03 0.03 81 1017.7
20260506060543 53 0 0.0 0.0 0.00 0.03 0.03 81 1017.7